This is the latest recevied weather packets stored in our database for station/object K1RTA. If no packets are shown the sender has not sent any weather packets the latest 10 day(s).
| Time | Temp. | Humidity | Pressure | Rain* | Wind** | Luminosity | Snow |
|---|---|---|---|---|---|---|---|
| 1787940244 | 31.11° C | 67% | 1015.7 hPa | 0 mm | - | - | - |
| 1787939944 | 31.11° C | 66% | 1015.7 hPa | 0 mm | - | - | - |
| 1787939644 | 31.67° C | 68% | 1015.8 hPa | 0 mm | - | - | - |
| 1787939343 | 31.11° C | 68% | 1015.9 hPa | 0 mm | - | - | - |
| 1787939043 | 31.11° C | 68% | 1015.8 hPa | 0 mm | - | - | - |
| 1787938743 | 31.11° C | 70% | 1015.8 hPa | 0 mm | - | - | - |
| 1787938443 | 31.11° C | 68% | 1015.9 hPa | 0 mm | - | - | - |
| 1787938143 | 31.11° C | 69% | 1016 hPa | 0 mm | - | - | - |
| 1787937843 | 31.11° C | 69% | 1016 hPa | 0 mm | - | - | - |
| 1787937543 | 30.56° C | 68% | 1016 hPa | 0 mm | - | - | - |
| 1787937242 | 30.56° C | 68% | 1016 hPa | 0 mm | - | - | - |
| 1787936942 | 30.56° C | 71% | 1015.9 hPa | 0 mm | - | - | - |
| 1787936644 | 30.56° C | 70% | 1016 hPa | 0 mm | - | - | - |
| 1787936344 | 30° C | 70% | 1016 hPa | 0 mm | - | - | - |
| 1787936044 | 30.56° C | 69% | 1016 hPa | 0 mm | - | - | - |
| 1787935743 | 30.56° C | 69% | 1016 hPa | 0 mm | - | - | - |
| 1787935442 | 31.11° C | 67% | 1016.2 hPa | 0 mm | - | - | - |
| 1787935142 | 31.11° C | 67% | 1016.2 hPa | 0 mm | - | - | - |
| 1787934843 | 31.11° C | 69% | 1016.2 hPa | 0 mm | - | - | - |
| 1787934543 | 30.56° C | 71% | 1016.2 hPa | 0 mm | - | - | - |
| 1787934243 | 30.56° C | 71% | 1016.3 hPa | 0 mm | - | - | - |
| 1787933943 | 30.56° C | 70% | 1016.4 hPa | 0 mm | - | - | - |
| 1787933643 | 30.56° C | 71% | 1016.4 hPa | 0 mm | - | - | - |
| 1787933342 | 30° C | 73% | 1016.3 hPa | 0 mm | - | - | - |
| 1787933042 | 30° C | 73% | 1016.3 hPa | 0 mm | - | - | - |
* Rain latest hour (hover to see other rain measurements)
** Current wind speed in m/s (hover to see current wind gust speed)